リニア彗星

C/2003 L2 ( LINEAR )

English version
Home page
Updated on January 15, 2005

---------------------------------------------------------------------

・ プロフィール

発見日 2003年6月12日
発見光度 18.2等
発見者 Lincoln Laboratory Near-Earth Asteroid Research project

・ 写真集

・ 軌道要素

Epoch 2004 Feb. 5.0 TT = JDT 2453040.5
T 2004 Jan. 19.2140 TT                                  MPCM
q   2.864752             (2000.0)            P               Q
z  +0.006483       Peri.  119.8479      +0.0888226      -0.1225229
 +/-0.000001       Node   273.5583      +0.1208820      +0.9863960
e   0.981428       Incl.   82.0513      +0.9886850      -0.1095948
From 449 observations 2003 June 12-2004 Feb. 28, mean residual 0".7.

・ 星図

・ 光度変化

        m1 = 11.6 + 5 logΔ +  5.5 log r  [ ,0]  (              〜2004年 1月19日)
        m1 =  5.0 + 5 logΔ + 20.0 log r  [0, ]  (2004年 1月19日〜              )

---------------------------------------------------------------------

軌道要素はMPCのEphemerides and Orbital Elementsに掲載されたものです。
星図は StellaNavigator Ver.2.0 for Windows (アストロアーツ 編著 / アスキー出版局刊) で作成したものです。
光度グラフはComet for Windowsで作成したものです。

---------------------------------------------------------------------

Copyright(C) Seiichi Yoshida (comet@aerith.net). All rights reserved.